Вернуться в каталог

FENGYUN 1C DEB

АктивенSSO
NORAD 29916·DEBRIS·🇨🇳 China

Запущен May 10, 1999 с Taiyuan Satellite Launch Center

Loading…

Ближайшие Пролёты (ближайшие 24 часа)

TLE

СвежийSource: Space-Track

Эпоха: Sep 13, 2026, 11:59 UTC

1 29916U 99025HN  26256.49958898  .00000337  00000-0  42012-3 0  9998
2 29916  99.1860 262.9804 0269780 275.7304 240.1432 13.57288369971794

Отслеживайте FENGYUN 1C DEB в реальном времени с AllMySat

Download on the App Store